When you browse on this site, cookies collect data to enhance your experience and personalize the content and advertising you see.
Visit our Privacy Policy to learn more. By continuing to use the site, you agree to this use of cookies and data.
  • In Czech Republic
  • List of Countries
  • For 7 days
  • Water Temperature
  • Weather Map
  • Weather Widgets
  • user-avatar
    Login

    Hourly Weather Przylubsko

    Today, 5 June, Friday

    Time Temperature Precipitation Wind Pressure Humidity
    00:00 +14°C° 0.1 mm 3 mps 718 mmHg 85%
    01:00 +14°C° 0.1 mm 3 mps 718 mmHg 87%
    02:00 +13°C° 0 mm 3 mps 718 mmHg 88%
    03:00 +13°C° 0 mm 3 mps 717 mmHg 89%
    04:00 +13°C° 0 mm 3 mps 717 mmHg 90%
    05:00 +14°C° 0 mm 3 mps 717 mmHg 85%
    06:00 +15°C° 0 mm 4 mps 718 mmHg 81%
    07:00 +18°C° 0 mm 4 mps 718 mmHg 77%
    08:00 +17°C° 0 mm 4 mps 718 mmHg 78%
    09:00 +17°C° 0 mm 4 mps 719 mmHg 79%
    10:00 +17°C° 0 mm 4 mps 719 mmHg 79%
    11:00 +16°C° 0.2 mm 5 mps 719 mmHg 80%
    12:00 +16°C° 0.2 mm 5 mps 720 mmHg 81%
    13:00 +16°C° 0.2 mm 6 mps 720 mmHg 81%
    14:00 +16°C° 0.1 mm 5 mps 720 mmHg 82%
    15:00 +17°C° 0.1 mm 4 mps 720 mmHg 82%
    16:00 +16°C° 0.1 mm 3 mps 721 mmHg 82%
    17:00 +16°C° 0.2 mm 3 mps 721 mmHg 85%
    18:00 +15°C° 0.2 mm 2 mps 721 mmHg 88%
    19:00 +15°C° 0.2 mm 2 mps 721 mmHg 91%
    20:00 +13°C° 0.2 mm 3 mps 721 mmHg 91%
    21:00 +13°C° 0.2 mm 3 mps 722 mmHg 91%
    22:00 +13°C° 0.2 mm 4 mps 722 mmHg 91%
    23:00 +13°C° 0 mm 4 mps 723 mmHg 90%

    Tomorrow, 6 June, Saturday

    Time Temperature Precipitation Wind Pressure Humidity
    00:00 +12°C° 0 mm 4 mps 723 mmHg 90%
    01:00 +11°C° 0 mm 4 mps 724 mmHg 89%
    02:00 +11°C° 0 mm 4 mps 724 mmHg 89%
    03:00 +10°C° 0 mm 5 mps 725 mmHg 88%
    04:00 +10°C° 0 mm 5 mps 725 mmHg 88%
    05:00 +12°C° 0 mm 5 mps 726 mmHg 82%
    06:00 +14°C° 0 mm 6 mps 726 mmHg 77%
    07:00 +15°C° 0 mm 7 mps 727 mmHg 72%
    08:00 +16°C° 0 mm 7 mps 727 mmHg 66%
    09:00 +18°C° 0 mm 7 mps 727 mmHg 59%
    10:00 +20°C° 0 mm 7 mps 728 mmHg 53%
    11:00 +21°C° 0 mm 6 mps 728 mmHg 54%
    12:00 +21°C° 0 mm 5 mps 728 mmHg 54%
    13:00 +22°C° 0 mm 5 mps 728 mmHg 54%
    14:00 +21°C° 0 mm 4 mps 728 mmHg 57%
    15:00 +21°C° 0 mm 3 mps 728 mmHg 60%
    16:00 +21°C° 0 mm 2 mps 728 mmHg 64%
    17:00 +20°C° 0 mm 2 mps 728 mmHg 67%
    18:00 +19°C° 0 mm 2 mps 728 mmHg 71%
    19:00 +18°C° 0 mm 2 mps 728 mmHg 75%
    20:00 +17°C° 0 mm 2 mps 728 mmHg 80%
    21:00 +16°C° 0 mm 2 mps 728 mmHg 84%
    22:00 +15°C° 0 mm 2 mps 728 mmHg 88%
    23:00 +15°C° 0 mm 2 mps 728 mmHg 90%

    Day after tomorrow, 7 June, Sunday

    Time Temperature Precipitation Wind Pressure Humidity
    00:00 +15°C° 0 mm 2 mps 728 mmHg 92%
    01:00 +14°C° 0 mm 1 mps 727 mmHg 94%
    02:00 +14°C° 0 mm 1 mps 727 mmHg 94%
    03:00 +14°C° 0 mm 1 mps 727 mmHg 93%
    04:00 +14°C° 0 mm 1 mps 727 mmHg 93%
    05:00 +15°C° 0.1 mm 1 mps 727 mmHg 90%
    06:00 +18°C° 0.1 mm 1 mps 727 mmHg 87%
    07:00 +19°C° 0.1 mm 1 mps 727 mmHg 84%
    08:00 +20°C° 0.2 mm 1 mps 728 mmHg 79%
    09:00 +20°C° 0.2 mm 2 mps 728 mmHg 74%
    10:00 +23°C° 0.2 mm 2 mps 728 mmHg 69%
    11:00 +22°C° 0.7 mm 1 mps 728 mmHg 74%
    12:00 +21°C° 0.7 mm 1 mps 728 mmHg 79%
    13:00 +21°C° 0.7 mm 1 mps 728 mmHg 84%
    14:00 +20°C° 1 mm 1 mps 728 mmHg 87%
    15:00 +20°C° 1 mm 1 mps 728 mmHg 89%
    16:00 +19°C° 1 mm 1 mps 728 mmHg 91%
    17:00 +19°C° 0.3 mm 1 mps 728 mmHg 93%
    18:00 +18°C° 0.3 mm 2 mps 728 mmHg 94%
    19:00 +18°C° 0.3 mm 2 mps 728 mmHg 95%
    20:00 +17°C° 0.5 mm 2 mps 729 mmHg 96%
    21:00 +17°C° 0.5 mm 2 mps 729 mmHg 96%
    22:00 +16°C° 0.5 mm 2 mps 729 mmHg 97%
    23:00 +16°C° 1.5 mm 2 mps 729 mmHg 97%

    8 June, Monday

    Time Temperature Precipitation Wind Pressure Humidity
    00:00 +16°C° 1.5 mm 3 mps 729 mmHg 98%
    01:00 +16°C° 1.5 mm 3 mps 729 mmHg 98%
    02:00 +15°C° 0.8 mm 4 mps 729 mmHg 98%
    03:00 +15°C° 0.8 mm 4 mps 728 mmHg 97%
    04:00 +14°C° 0.8 mm 4 mps 728 mmHg 97%
    05:00 +16°C° 0.1 mm 3 mps 728 mmHg 97%
    06:00 +16°C° 0.1 mm 2 mps 728 mmHg 96%
    07:00 +16°C° 0.1 mm 2 mps 728 mmHg 96%
    08:00 +17°C° 0.1 mm 2 mps 728 mmHg 93%
    09:00 +18°C° 0.1 mm 2 mps 728 mmHg 90%
    10:00 +20°C° 0.1 mm 1 mps 729 mmHg 87%
    11:00 +20°C° 0.1 mm 2 mps 728 mmHg 84%
    12:00 +21°C° 0.1 mm 2 mps 728 mmHg 81%
    13:00 +21°C° 0.1 mm 2 mps 728 mmHg 79%
    14:00 +20°C° 0.7 mm 3 mps 728 mmHg 82%
    15:00 +20°C° 0.7 mm 3 mps 728 mmHg 86%
    16:00 +19°C° 0.7 mm 4 mps 728 mmHg 89%
    17:00 +18°C° 0.1 mm 4 mps 728 mmHg 91%
    18:00 +18°C° 0.1 mm 3 mps 728 mmHg 92%
    19:00 +17°C° 0.1 mm 3 mps 728 mmHg 94%
    20:00 +16°C° 0 mm 3 mps 729 mmHg 95%
    21:00 +16°C° 0 mm 3 mps 729 mmHg 96%
    22:00 +15°C° 0 mm 2 mps 729 mmHg 98%
    23:00 +15°C° 0 mm 2 mps 729 mmHg 97%

    9 June, Tuesday

    Time Temperature Precipitation Wind Pressure Humidity
    00:00 +15°C° 0 mm 2 mps 729 mmHg 97%
    01:00 +15°C° 0 mm 2 mps 729 mmHg 96%
    02:00 +15°C° 0 mm 2 mps 730 mmHg 96%
    03:00 +15°C° 0 mm 2 mps 730 mmHg 96%
    04:00 +15°C° 0 mm 2 mps 730 mmHg 96%
    05:00 +15°C° 0 mm 2 mps 730 mmHg 95%
    06:00 +15°C° 0 mm 2 mps 730 mmHg 93%
    07:00 +16°C° 0 mm 2 mps 730 mmHg 92%
    08:00 +17°C° 0 mm 2 mps 731 mmHg 88%
    09:00 +18°C° 0 mm 2 mps 731 mmHg 84%
    10:00 +18°C° 0 mm 2 mps 731 mmHg 80%
    11:00 +19°C° 0 mm 2 mps 731 mmHg 77%
    12:00 +20°C° 0 mm 2 mps 731 mmHg 75%
    13:00 +20°C° 0 mm 2 mps 731 mmHg 72%
    14:00 +20°C° 0.1 mm 2 mps 731 mmHg 75%
    15:00 +20°C° 0.1 mm 2 mps 731 mmHg 77%
    16:00 +20°C° 0.1 mm 2 mps 731 mmHg 80%
    17:00 +19°C° 0.1 mm 2 mps 731 mmHg 82%
    18:00 +19°C° 0.1 mm 2 mps 731 mmHg 85%
    19:00 +18°C° 0.1 mm 2 mps 731 mmHg 88%
    20:00 +17°C° 0 mm 2 mps 731 mmHg 90%
    21:00 +17°C° 0 mm 2 mps 731 mmHg 93%
    22:00 +16°C° 0 mm 2 mps 731 mmHg 95%
    23:00 +15°C° 0 mm 2 mps 731 mmHg 96%

    10 June, Wednesday

    Time Temperature Precipitation Wind Pressure Humidity
    00:00 +15°C° 0 mm 2 mps 731 mmHg 96%
    01:00 +15°C° 0 mm 2 mps 731 mmHg 97%
    02:00 +15°C° 0.3 mm 2 mps 731 mmHg 97%
    03:00 +15°C° 0.3 mm 2 mps 731 mmHg 97%
    04:00 +15°C° 0.3 mm 2 mps 731 mmHg 97%
    05:00 +15°C° 0.4 mm 2 mps 731 mmHg 97%
    06:00 +16°C° 0.4 mm 2 mps 731 mmHg 96%
    07:00 +16°C° 0.4 mm 2 mps 732 mmHg 96%
    08:00 +17°C° 0.2 mm 2 mps 732 mmHg 94%
    09:00 +17°C° 0.2 mm 2 mps 732 mmHg 92%
    10:00 +19°C° 0.2 mm 1 mps 732 mmHg 90%
    11:00 +19°C° 0.8 mm 2 mps 732 mmHg 89%
    12:00 +19°C° 0.8 mm 3 mps 732 mmHg 88%
    13:00 +20°C° 0.8 mm 3 mps 733 mmHg 87%
    14:00 +20°C° 0.8 mm 4 mps 733 mmHg 88%
    15:00 +19°C° 0.8 mm 4 mps 733 mmHg 88%
    16:00 +19°C° 0.8 mm 4 mps 733 mmHg 89%
    17:00 +19°C° 0 mm 4 mps 733 mmHg 90%
    18:00 +18°C° 0 mm 4 mps 733 mmHg 91%
    19:00 +18°C° 0 mm 3 mps 733 mmHg 92%
    20:00 +18°C° 0 mm 3 mps 733 mmHg 94%
    21:00 +17°C° 0 mm 3 mps 734 mmHg 95%
    22:00 +16°C° 0 mm 2 mps 734 mmHg 96%
    23:00 +16°C° 0 mm 2 mps 734 mmHg 96%
    Show more